Regional Weather Roundup
Issued by NWS

Home | Current Version | Previous Version | Text Only | Print | Product List | Glossary On
Versions: 1 2 3 4 5 6 7 8 9 10 11 12 13 14 15 16 17 18 19 20 21 22 23 24 25 26 27 28 29 30 31 32 33 34 35 36 37 38 39 40 41 42 43 44 45 46 47 48 49 50
000
ASUS43 KDTX 240310
RWRMI
MICHIGAN HOURLY REGIONAL WEATHER ROUNDUP
NATIONAL WEATHER SERVICE DETROIT/PONTIAC MI
1100 PM EDT SAT MAY 23 2015

NOTE: "FAIR" INDICATES FEW OR NO CLOUDS BELOW 12,000 FEET WITH NO
SIGNIFICANT WEATHER AND/OR OBSTRUCTION TO VISIBILITY.

MIZ047>049-052>055-059>063-066>070-074>076-081>083-240400-
SOUTHEAST LOWER MICHIGAN

CITY           SKY/WX    TMP DP  RH WIND       PRES   REMARKS
ADRIAN         CLEAR     61  46  57 CALM      30.28R
ALMA           CLEAR     54  48  80 CALM      30.25S
ANN ARBOR      CLEAR     55  43  63 CALM      30.29R
BAD AXE        CLEAR     55  37  50 SW5       30.25S
CARO           CLEAR     48  42  81 CALM      30.24S
DETROIT CITY   CLEAR     60  38  43 S6        30.29R
DETROIT        CLEAR     60  44  55 CALM      30.29R
FLINT          CLEAR     56  44  64 S3        30.26R
GROSSE ILE     CLEAR     59  45  58 SE3       30.27S
HILLSDALE      CLEAR     59  46  63 CALM      30.27S
HOWELL         CLEAR     56  41  56 SE6       30.27R

CITY           SKY/WX    TMP DP  RH WIND       PRES   REMARKS
JACKSON        CLEAR     59  45  59 CALM      30.27R
LAMBERTVILLE   CLEAR     55  46  71 CALM      30.28S
LANSING        CLEAR     60  42  51 CALM      30.26R
LAPEER         FAIR      50  40  68 CALM      30.26S
MASON          CLEAR     52  45  75 CALM      30.26S
MONROE         CLEAR     61  46  59 SE3       30.27S
MT. CLEMENS    CLEAR     53  46  75 S6        30.26R
PONTIAC        CLEAR     61  39  44 S6        30.27S
PORT HOPE        N/A     63  36  36 SW6       30.22R
PORT HURON     CLEAR     54  41  62 S3        30.28S
TRI CITIES     CLEAR     65  37  35 SW5       30.24S
MIDLAND        FAIR      53  42  65 CALM      30.24R
TROY           CLEAR     63  38  40 CALM      30.30S
SAGINAW HB     CLEAR     61  32  33 SW5       30.24S
$$
MIZ043>046-050>051-056>058-064>065-071>073-077>080-240400-
SOUTHWEST LOWER MICHIGAN

CITY           SKY/WX    TMP DP  RH WIND       PRES   REMARKS
BATTLE CREEK   CLEAR     63  47  55 CALM      30.26R
BENTON HARBOR  PTCLDY    58  48  69 CALM      30.22R
BIG RAPIDS     CLEAR     55  40  58 CALM      30.23S
COLDWATER      PTCLDY    61  49  66 SE3       30.25S
FREMONT        FAIR      56  41  57 CALM      30.23S
HOLLAND        CLEAR     60  46  59 CALM      30.24R
GRAND RAPIDS   PTCLDY    59  44  57 SE3       30.24R
IONIA          FAIR      59  43  54 SE3       30.24S
KALAMAZOO      PTCLDY    63  45  51 CALM      30.25R
LUDINGTON      CLEAR     56  45  66 CALM      30.22S
MARSHALL       CLEAR     58  47  68 CALM      30.26R
MOUNT PLEASANT CLEAR     55  50  82 CALM      30.23S
MUSKEGON       PTCLDY    59  45  59 CALM      30.23R
SOUTH HAVEN    PTCLDY    56  48  74 CALM      30.22S
$$
MIZ016>042-240400-
NORTHERN LOWER MICHIGAN

CITY           SKY/WX    TMP DP  RH WIND       PRES   REMARKS
ALPENA         CLEAR     54  40  59 SW5       30.20R
BEAVER ISLAND  CLEAR     60  32  35 SW13G21   30.17S
BELLAIRE       CLEAR     48  43  82 CALM      30.20S
CADILLAC       CLEAR     51  38  63 CALM      30.23S
CHARLEVOIX     CLEAR     61  38  41 SW7       30.21S
FRANKFORT      CLEAR     56  35  45 CALM      30.20S
GAYLORD        CLEAR     57  36  45 CALM      30.21S
GRAYLING       CLEAR     46  37  71 CALM      30.23S
HARBOR SPRINGS CLEAR     59  39  47 W5        30.19R
HOUGHTON LAKE  CLEAR     52  41  66 CALM      30.24R
MANISTEE       CLEAR     52  39  62 E3        30.21F
OSCODA         CLEAR     58  42  54 SW3       30.21R
PELLSTON       CLEAR     56  38  50 N5        30.18S
ROGERS CITY    PTCLDY    64  37  36 SW7       30.19R
TRAVERSE CITY  CLEAR     60  39  45 CALM      30.19S
$$
MIZ007>008-015-240400-
EASTERN UPPER MICHIGAN

CITY           SKY/WX    TMP DP  RH WIND       PRES   REMARKS
KINROSS        CLEAR     55  34  44 W9        30.18R
MACKINAC ISLAN CLEAR     54  37  53 W8        30.17S
NEWBERRY       PTCLDY    54  36  50 SW14      30.17F
S. S. MARIE    CLEAR     56  35  45 SW7       30.18R
MUNISING         N/A     62  41  46 CALM      30.13S
$$
MIZ004>006-011>014-085-240400-
CENTRAL UPPER MICHIGAN

CITY           SKY/WX    TMP DP  RH WIND       PRES   REMARKS
MANISTIQUE     CLEAR     49  40  71 S7        30.15S
ESCANABA       CLEAR     63  39  42 SW12      30.14S
MENOMINEE      MOCLDY    64  39  39 SW7       30.17R
SAWYER-GWINN   CLEAR     61  37  41 CALM      30.16R
$$
MIZ001>003-009>011-084-240400-
WESTERN UPPER MICHIGAN

CITY           SKY/WX    TMP DP  RH WIND       PRES   REMARKS
IRON MOUNTAIN  CLOUDY    64  40  41 CALM      30.16R
HOUGHTON       PTCLDY    62  36  37 W8        30.11S
COPPER HARBOR    N/A     55  36  48 W3        30.11R
IRONWOOD       PTCLDY    59  43  55 CALM      30.14S
$$

ABBREVIATIONS USED IN REMARKS
   TC - TEMPERATURE IN CELSIUS
  WCI - WIND CHILL INDEX
   HX - HEAT INDEX
  VSB - VISIBILITY




USA.gov is the U.S. government's official web portal to all federal, state and local government web resources and services.